AAL2641 KDCA-MYNN

Flight info

Callsign AAL2641
Flight time 1h 58m
Altitude 38000
Route AMEEE1 SCOOB DCT EARZZ DCT SKARP DCT IDOLS DCT FLRDA AR18 OZENA/N0430F370 DCT NUCAR/N0432F380 AR3 KURAY
Aircraft A320/M-SDE3FGHIRWY/LB1

Departure

Time 2026-05-05 21:23
Airport Ronald Reagan Washington National Airport (KDCA)

Arrival

Time 2026-05-05 23:21
Airport Lynden Pindling International Airport (MYNN)
Time Latitude Longitude Altitude Speed Heading
2026-05-05 21:04 38.85266 -77.04070 28 ft 0 kts 224°
2026-05-05 21:13 38.85268 -77.04068 24 ft 1 kts 224°
2026-05-05 21:13 38.85280 -77.04053 24 ft 3 kts 227°
2026-05-05 21:13 38.85293 -77.04033 24 ft 3 kts 234°
2026-05-05 21:13 38.85303 -77.04012 24 ft 3 kts 258°
2026-05-05 21:14 38.85305 -77.03995 25 ft 3 kts 323°
2026-05-05 21:14 38.85302 -77.03992 24 ft 0 kts 356°
2026-05-05 21:18 38.85306 -77.03992 24 ft 2 kts 356°
2026-05-05 21:18 38.85347 -77.03996 24 ft 11 kts 356°
2026-05-05 21:19 38.85440 -77.04004 24 ft 15 kts 356°
2026-05-05 21:19 38.85547 -77.04006 27 ft 15 kts 26°
2026-05-05 21:19 38.85615 -77.03963 25 ft 0 kts 356°
2026-05-05 21:19 38.85624 -77.03964 26 ft 4 kts 356°
2026-05-05 21:20 38.85671 -77.03968 29 ft 11 kts 355°
2026-05-05 21:20 38.85774 -77.03978 30 ft 19 kts 355°
2026-05-05 21:20 38.85930 -77.03985 25 ft 22 kts
2026-05-05 21:20 38.86077 -77.03921 24 ft 22 kts 43°
2026-05-05 21:21 38.86072 -77.03868 23 ft 5 kts 168°
2026-05-05 21:21 38.86063 -77.03867 23 ft 1 kts 175°
2026-05-05 21:21 38.86058 -77.03866 23 ft 0 kts 175°
2026-05-05 21:22 38.86016 -77.03861 24 ft 27 kts 175°
2026-05-05 21:22 38.85581 -77.03818 28 ft 95 kts 175°
2026-05-05 21:22 38.84752 -77.03736 29 ft 142 kts 172°
2026-05-05 21:23 38.83784 -77.03565 627 ft 132 kts 172°
2026-05-05 21:23 38.82841 -77.03370 983 ft 145 kts 174°
2026-05-05 21:23 38.81767 -77.03166 1156 ft 167 kts 174°
2026-05-05 21:23 38.80545 -77.02926 1404 ft 188 kts 175°
2026-05-05 21:24 38.79212 -77.02656 1767 ft 202 kts 173°
2026-05-05 21:24 38.77742 -77.02351 2142 ft 223 kts 173°
2026-05-05 21:24 38.77370 -77.02272 2323 ft 225 kts 173°
2026-05-05 21:24 38.76665 -77.02125 2716 ft 225 kts 174°
2026-05-05 21:25 38.75134 -77.01640 3630 ft 231 kts 161°
2026-05-05 21:25 38.73669 -77.00528 4205 ft 253 kts 152°
2026-05-05 21:25 38.72202 -76.99248 5011 ft 261 kts 152°
2026-05-05 21:25 38.70708 -76.97907 5886 ft 265 kts 152°
2026-05-05 21:26 38.69215 -76.96561 6724 ft 270 kts 152°
2026-05-05 21:26 38.67659 -76.95165 7559 ft 275 kts 152°
2026-05-05 21:26 38.66081 -76.93755 8371 ft 279 kts 151°
2026-05-05 21:26 38.64473 -76.92326 9158 ft 284 kts 151°
2026-05-05 21:27 38.62837 -76.90879 9908 ft 288 kts 152°
2026-05-05 21:27 38.61143 -76.89388 10360 ft 306 kts 152°
2026-05-05 21:27 38.59321 -76.87792 10632 ft 327 kts 152°
2026-05-05 21:27 38.57421 -76.86122 11202 ft 335 kts 151°
2026-05-05 21:28 38.55488 -76.84417 11882 ft 341 kts 151°
2026-05-05 21:28 38.53553 -76.82701 12551 ft 345 kts 151°
2026-05-05 21:28 38.51575 -76.80928 13219 ft 350 kts 150°
2026-05-05 21:28 38.49575 -76.79130 13844 ft 354 kts 150°
2026-05-05 21:29 38.47552 -76.77313 14464 ft 358 kts 150°
2026-05-05 21:29 38.45496 -76.75471 15077 ft 362 kts 150°
2026-05-05 21:29 38.43422 -76.73622 15681 ft 366 kts 151°
2026-05-05 21:29 38.41197 -76.72079 16226 ft 364 kts 162°
2026-05-05 21:30 38.38788 -76.71105 16792 ft 363 kts 173°
2026-05-05 21:30 38.36292 -76.70641 17346 ft 364 kts 177°
2026-05-05 21:30 38.33759 -76.70244 17887 ft 368 kts 177°
2026-05-05 21:30 38.31200 -76.69838 18430 ft 373 kts 177°
2026-05-05 21:31 38.28608 -76.69425 18983 ft 377 kts 176°
2026-05-05 21:31 38.25993 -76.69003 19545 ft 381 kts 176°
2026-05-05 21:31 38.23354 -76.68570 20103 ft 384 kts 176°
2026-05-05 21:31 38.20706 -76.68136 20649 ft 388 kts 176°
2026-05-05 21:32 38.18019 -76.67701 21167 ft 391 kts 176°
2026-05-05 21:32 38.15306 -76.67268 21677 ft 394 kts 176°
2026-05-05 21:32 38.12573 -76.66834 22169 ft 398 kts 175°
2026-05-05 21:32 38.09810 -76.66399 22655 ft 401 kts 176°
2026-05-05 21:33 38.07025 -76.66074 23146 ft 403 kts 179°
2026-05-05 21:33 38.04216 -76.65863 23628 ft 406 kts 180°
2026-05-05 21:33 38.01384 -76.65714 24087 ft 409 kts 180°
2026-05-05 21:33 37.99482 -76.65627 24379 ft 411 kts 180°
2026-05-05 21:34 37.96595 -76.65490 24795 ft 415 kts 180°
2026-05-05 21:34 37.96295 -76.65474 24835 ft 416 kts 180°
2026-05-05 21:34 37.94574 -76.65380 25071 ft 418 kts 180°
2026-05-05 21:34 37.91658 -76.65204 25450 ft 422 kts 179°
2026-05-05 21:35 37.88717 -76.65011 25833 ft 426 kts 179°
2026-05-05 21:35 37.85746 -76.64808 26204 ft 429 kts 179°
2026-05-05 21:35 37.82750 -76.64603 26566 ft 433 kts 179°
2026-05-05 21:35 37.79732 -76.64396 26925 ft 436 kts 179°
2026-05-05 21:36 37.76689 -76.64189 27270 ft 439 kts 179°
2026-05-05 21:36 37.73624 -76.63985 27592 ft 443 kts 179°
2026-05-05 21:36 37.70537 -76.63783 27934 ft 446 kts 180°
2026-05-05 21:36 37.67430 -76.63580 28254 ft 449 kts 180°
2026-05-05 21:37 37.64300 -76.63373 28577 ft 452 kts 180°
2026-05-05 21:37 37.61154 -76.63162 28892 ft 455 kts 180°
2026-05-05 21:37 37.57989 -76.63190 29189 ft 455 kts 188°
2026-05-05 21:37 37.54838 -76.63610 29498 ft 457 kts 189°
2026-05-05 21:38 37.51670 -76.64056 29808 ft 460 kts 190°
2026-05-05 21:38 37.48481 -76.64503 30126 ft 462 kts 190°
2026-05-05 21:38 37.45274 -76.64947 30421 ft 465 kts 190°
2026-05-05 21:38 37.42044 -76.65390 30710 ft 468 kts 190°
2026-05-05 21:39 37.38798 -76.65835 30991 ft 471 kts 190°
2026-05-05 21:39 37.35532 -76.66279 31265 ft 474 kts 190°
2026-05-05 21:39 37.32245 -76.66726 31563 ft 475 kts 190°
2026-05-05 21:39 37.28958 -76.67172 31928 ft 475 kts 191°
2026-05-05 21:40 37.25673 -76.67615 32309 ft 476 kts 191°
2026-05-05 21:40 37.22383 -76.68058 32672 ft 476 kts 191°
2026-05-05 21:40 37.19087 -76.68505 33024 ft 476 kts 191°
2026-05-05 21:40 37.15792 -76.68956 33366 ft 477 kts 191°
2026-05-05 21:41 37.12485 -76.69411 33692 ft 478 kts 192°
2026-05-05 21:41 37.09175 -76.69865 34035 ft 479 kts 192°
2026-05-05 21:41 37.05862 -76.70315 34384 ft 479 kts 192°
2026-05-05 21:41 37.02551 -76.70759 34741 ft 478 kts 192°
2026-05-05 21:42 36.99249 -76.71199 35092 ft 477 kts 192°
2026-05-05 21:42 36.95955 -76.71640 35440 ft 476 kts 192°
2026-05-05 21:42 36.92669 -76.72080 35796 ft 474 kts 192°
2026-05-05 21:42 36.89399 -76.72517 36128 ft 473 kts 192°
2026-05-05 21:43 36.86134 -76.72957 36457 ft 471 kts 192°
2026-05-05 21:43 36.82877 -76.73397 36757 ft 470 kts 192°
2026-05-05 21:43 36.79671 -76.73828 37059 ft 469 kts 192°
2026-05-05 21:43 36.76393 -76.74267 37392 ft 466 kts 192°
2026-05-05 21:44 36.73178 -76.74696 37736 ft 463 kts 192°
2026-05-05 21:44 36.70024 -76.75117 37979 ft 461 kts 192°
2026-05-05 21:44 36.63598 -76.75992 38037 ft 469 kts 192°
2026-05-05 21:45 36.57040 -76.76881 38036 ft 478 kts 192°
2026-05-05 21:45 36.50382 -76.77764 38036 ft 482 kts 192°
2026-05-05 21:46 36.43707 -76.78649 38043 ft 483 kts 192°
2026-05-05 21:46 36.37023 -76.79532 38045 ft 483 kts 192°
2026-05-05 21:47 36.30335 -76.80418 38048 ft 483 kts 192°
2026-05-05 21:47 36.23638 -76.81311 38051 ft 485 kts 192°
2026-05-05 21:48 36.16927 -76.82194 38060 ft 485 kts 192°
2026-05-05 21:48 36.10219 -76.83083 38064 ft 485 kts 192°
2026-05-05 21:49 36.03501 -76.83968 38073 ft 486 kts 192°
2026-05-05 21:49 35.96782 -76.84850 38076 ft 486 kts 192°
2026-05-05 21:50 35.90101 -76.86030 38070 ft 480 kts 201°
2026-05-05 21:50 35.83773 -76.88505 38075 ft 477 kts 205°
2026-05-05 21:51 35.77446 -76.91017 38082 ft 478 kts 204°
2026-05-05 21:51 35.71109 -76.93514 38089 ft 478 kts 204°
2026-05-05 21:52 35.61593 -76.97250 38099 ft 479 kts 204°
2026-05-05 21:53 35.55253 -76.99742 38107 ft 479 kts 204°
2026-05-05 21:53 35.48908 -77.02235 38110 ft 479 kts 204°
2026-05-05 21:54 35.42565 -77.04719 38112 ft 479 kts 204°
2026-05-05 21:54 35.36223 -77.07198 38112 ft 478 kts 204°
2026-05-05 21:55 35.29883 -77.09673 38117 ft 479 kts 204°
2026-05-05 21:55 35.23538 -77.12146 38120 ft 479 kts 204°
2026-05-05 21:56 35.17188 -77.14619 38128 ft 479 kts 204°
2026-05-05 21:56 35.10829 -77.17087 38134 ft 480 kts 204°
2026-05-05 21:57 35.04466 -77.19557 38147 ft 480 kts 204°
2026-05-05 21:57 34.98100 -77.22016 38143 ft 480 kts 204°
2026-05-05 21:58 34.91727 -77.24479 38141 ft 480 kts 204°
2026-05-05 21:58 34.85352 -77.26938 38145 ft 481 kts 204°
2026-05-05 21:59 34.78974 -77.29395 38141 ft 481 kts 204°
2026-05-05 21:59 34.72591 -77.31855 38136 ft 481 kts 205°
2026-05-05 22:00 34.66203 -77.34312 38140 ft 481 kts 205°
2026-05-05 22:00 34.59821 -77.36756 38141 ft 481 kts 205°
2026-05-05 22:01 34.53478 -77.39180 38147 ft 481 kts 205°
2026-05-05 22:01 34.47021 -77.41370 38142 ft 489 kts 196°
2026-05-05 22:02 34.40306 -77.42685 38143 ft 489 kts 196°
2026-05-05 22:02 34.33587 -77.43981 38148 ft 489 kts 196°
2026-05-05 22:03 34.26861 -77.45292 38143 ft 489 kts 196°
2026-05-05 22:03 34.20144 -77.46616 38132 ft 489 kts 196°
2026-05-05 22:04 34.13421 -77.47932 38132 ft 490 kts 196°
2026-05-05 22:04 34.06690 -77.49240 38147 ft 490 kts 196°
2026-05-05 22:05 33.99956 -77.50542 38140 ft 490 kts 196°
2026-05-05 22:05 33.93226 -77.51840 38142 ft 490 kts 196°
2026-05-05 22:06 33.86498 -77.53137 38134 ft 490 kts 196°
2026-05-05 22:06 33.79771 -77.54442 38134 ft 490 kts 197°
2026-05-05 22:07 33.73048 -77.55747 38147 ft 490 kts 196°
2026-05-05 22:07 33.66315 -77.57048 38145 ft 490 kts 196°
2026-05-05 22:08 33.59577 -77.58341 38152 ft 490 kts 196°
2026-05-05 22:08 33.52873 -77.59772 38157 ft 488 kts 199°
2026-05-05 22:09 33.46256 -77.61510 38158 ft 486 kts 200°
2026-05-05 22:09 33.39652 -77.63296 38147 ft 487 kts 200°
2026-05-05 22:10 33.33024 -77.64988 38141 ft 488 kts 199°
2026-05-05 22:10 33.26375 -77.66627 38143 ft 488 kts 199°
2026-05-05 22:11 33.19720 -77.68278 38144 ft 488 kts 200°
2026-05-05 22:11 33.13114 -77.69941 38145 ft 489 kts 200°
2026-05-05 22:12 33.06459 -77.71615 38148 ft 489 kts 200°
2026-05-05 22:12 32.99792 -77.73285 38141 ft 489 kts 200°
2026-05-05 22:13 32.93124 -77.74938 38146 ft 490 kts 200°
2026-05-05 22:13 32.86454 -77.76588 38134 ft 490 kts 200°
2026-05-05 22:14 32.79782 -77.78243 38128 ft 490 kts 200°
2026-05-05 22:14 32.73108 -77.79909 38129 ft 490 kts 200°
2026-05-05 22:15 32.66433 -77.81564 38128 ft 491 kts 200°
2026-05-05 22:15 32.59746 -77.83218 38130 ft 491 kts 200°
2026-05-05 22:16 32.53057 -77.84876 38132 ft 491 kts 200°
2026-05-05 22:16 32.46364 -77.86528 38131 ft 492 kts 200°
2026-05-05 22:17 32.39664 -77.88179 38132 ft 492 kts 200°
2026-05-05 22:17 32.32956 -77.89827 38131 ft 492 kts 201°
2026-05-05 22:18 32.26250 -77.91472 38132 ft 493 kts 201°
2026-05-05 22:18 32.19535 -77.93122 38131 ft 493 kts 200°
2026-05-05 22:19 32.13959 -77.94493 38124 ft 493 kts 200°
2026-05-05 22:19 32.07247 -77.96137 38124 ft 493 kts 200°
2026-05-05 22:20 32.00534 -77.97775 38122 ft 492 kts 200°
2026-05-05 22:20 31.93673 -77.98663 38120 ft 511 kts 183°
2026-05-05 22:21 31.86568 -77.98007 38117 ft 512 kts 182°
2026-05-05 22:21 31.79456 -77.97290 38118 ft 513 kts 182°
2026-05-05 22:22 31.72347 -77.96581 38120 ft 513 kts 182°
2026-05-05 22:22 31.65232 -77.95904 38120 ft 513 kts 183°
2026-05-05 22:23 31.58105 -77.95240 38122 ft 514 kts 183°
2026-05-05 22:23 31.50980 -77.94562 38126 ft 514 kts 182°
2026-05-05 22:24 31.43856 -77.93870 38125 ft 514 kts 183°
2026-05-05 22:24 31.36736 -77.93185 38123 ft 513 kts 183°
2026-05-05 22:25 31.29616 -77.92509 38123 ft 513 kts 183°
2026-05-05 22:25 31.22495 -77.91838 38119 ft 513 kts 183°
2026-05-05 22:26 31.15380 -77.91164 38114 ft 513 kts 183°
2026-05-05 22:26 31.08260 -77.90487 38114 ft 513 kts 184°
2026-05-05 22:27 31.01148 -77.89813 38112 ft 513 kts 184°
2026-05-05 22:27 30.94030 -77.89138 38112 ft 513 kts 184°
2026-05-05 22:28 30.86910 -77.88463 38113 ft 513 kts 184°
2026-05-05 22:28 30.79791 -77.87797 38113 ft 513 kts 184°
2026-05-05 22:29 30.72675 -77.87132 38107 ft 514 kts 184°
2026-05-05 22:29 30.65557 -77.86455 38102 ft 514 kts 184°
2026-05-05 22:30 30.58430 -77.85789 38103 ft 514 kts 184°
2026-05-05 22:30 30.51299 -77.85125 38100 ft 514 kts 184°
2026-05-05 22:31 30.44173 -77.84458 38100 ft 514 kts 184°
2026-05-05 22:31 30.37051 -77.83782 38102 ft 514 kts 184°
2026-05-05 22:32 30.29919 -77.83116 38099 ft 514 kts 185°
2026-05-05 22:32 30.22792 -77.82462 38100 ft 514 kts 185°
2026-05-05 22:33 30.15674 -77.81799 38096 ft 513 kts 185°
2026-05-05 22:33 30.08549 -77.81140 38091 ft 514 kts 185°
2026-05-05 22:34 30.01423 -77.80482 38089 ft 514 kts 185°
2026-05-05 22:34 29.94288 -77.79825 38095 ft 515 kts 185°
2026-05-05 22:35 29.87190 -77.79158 38096 ft 515 kts 185°
2026-05-05 22:35 29.80045 -77.78490 38091 ft 516 kts 185°
2026-05-05 22:36 29.72894 -77.77838 38095 ft 516 kts 185°
2026-05-05 22:36 29.65742 -77.77185 38094 ft 515 kts 185°
2026-05-05 22:37 29.58594 -77.76521 38094 ft 515 kts 185°
2026-05-05 22:37 29.51444 -77.75858 38096 ft 515 kts 185°
2026-05-05 22:38 29.44304 -77.75211 38093 ft 515 kts 185°
2026-05-05 22:38 29.37159 -77.74560 38091 ft 515 kts 184°
2026-05-05 22:39 29.30010 -77.73908 38090 ft 516 kts 184°
2026-05-05 22:39 29.22854 -77.73250 38085 ft 516 kts 184°
2026-05-05 22:40 29.15691 -77.72599 38086 ft 516 kts 184°
2026-05-05 22:40 29.08536 -77.71950 38090 ft 516 kts 184°
2026-05-05 22:41 29.01374 -77.71297 38085 ft 516 kts 184°
2026-05-05 22:41 28.94210 -77.70640 38088 ft 517 kts 184°
2026-05-05 22:42 28.87042 -77.69994 38087 ft 517 kts 184°
2026-05-05 22:42 28.79871 -77.69348 38091 ft 517 kts 184°
2026-05-05 22:43 28.72703 -77.68699 38084 ft 517 kts 184°
2026-05-05 22:43 28.65541 -77.68044 38090 ft 516 kts 184°
2026-05-05 22:44 28.58382 -77.67399 38080 ft 516 kts 184°
2026-05-05 22:44 28.51227 -77.66758 38079 ft 516 kts 184°
2026-05-05 22:45 28.44078 -77.66119 38071 ft 515 kts 184°
2026-05-05 22:45 28.36927 -77.65478 38067 ft 515 kts 184°
2026-05-05 22:46 28.29777 -77.64837 38066 ft 515 kts 184°
2026-05-05 22:46 28.22631 -77.64188 38060 ft 515 kts 184°
2026-05-05 22:47 28.15480 -77.63548 38059 ft 515 kts 184°
2026-05-05 22:47 28.08327 -77.62967 38062 ft 515 kts 185°
2026-05-05 22:48 28.01177 -77.62579 38065 ft 514 kts 186°
2026-05-05 22:48 27.94078 -77.62241 38072 ft 514 kts 186°
2026-05-05 22:49 27.86927 -77.61858 38075 ft 515 kts 185°
2026-05-05 22:49 27.79774 -77.61440 38076 ft 515 kts 185°
2026-05-05 22:50 27.72614 -77.61021 38076 ft 516 kts 185°
2026-05-05 22:50 27.65445 -77.60613 38074 ft 516 kts 185°
2026-05-05 22:51 27.58275 -77.60214 38078 ft 516 kts 185°
2026-05-05 22:51 27.51112 -77.59821 38076 ft 516 kts 185°
2026-05-05 22:52 27.43965 -77.59419 37791 ft 508 kts 185°
2026-05-05 22:52 27.40510 -77.59214 37158 ft 497 kts 185°
2026-05-05 22:52 27.37115 -77.59008 36897 ft 484 kts 185°
2026-05-05 22:52 27.33753 -77.58813 36374 ft 483 kts 185°
2026-05-05 22:53 27.30405 -77.58628 35869 ft 482 kts 185°
2026-05-05 22:53 27.27060 -77.58447 35372 ft 481 kts 185°
2026-05-05 22:53 27.23717 -77.58269 34851 ft 480 kts 185°
2026-05-05 22:53 27.20399 -77.58091 34335 ft 479 kts 185°
2026-05-05 22:54 27.17073 -77.57911 33800 ft 478 kts 185°
2026-05-05 22:54 27.13755 -77.57728 33272 ft 477 kts 185°
2026-05-05 22:54 27.10440 -77.57540 32735 ft 476 kts 184°
2026-05-05 22:54 27.07151 -77.57349 32212 ft 474 kts 184°
2026-05-05 22:55 27.03863 -77.57157 31689 ft 472 kts 184°
2026-05-05 22:55 27.00592 -77.56967 31220 ft 469 kts 183°
2026-05-05 22:55 26.97346 -77.56778 30781 ft 465 kts 183°
2026-05-05 22:55 26.94133 -77.56583 30344 ft 460 kts 182°
2026-05-05 22:56 26.90951 -77.56380 29924 ft 456 kts 182°
2026-05-05 22:56 26.87802 -77.56174 29502 ft 451 kts 182°
2026-05-05 22:56 26.84684 -77.55970 29100 ft 447 kts 182°
2026-05-05 22:56 26.81594 -77.55771 28708 ft 442 kts 182°
2026-05-05 22:57 26.78537 -77.55578 28309 ft 439 kts 182°
2026-05-05 22:57 26.75502 -77.55389 27920 ft 435 kts 183°
2026-05-05 22:57 26.72494 -77.55204 27525 ft 432 kts 183°
2026-05-05 22:57 26.69526 -77.55016 27105 ft 420 kts 182°
2026-05-05 22:58 26.66657 -77.54828 26732 ft 406 kts 183°
2026-05-05 22:58 26.63883 -77.54645 26360 ft 396 kts 183°
2026-05-05 22:58 26.61135 -77.54472 25964 ft 394 kts 183°
2026-05-05 22:58 26.58409 -77.54306 25580 ft 391 kts 184°
2026-05-05 22:59 26.55701 -77.54141 25182 ft 389 kts 183°
2026-05-05 22:59 26.53007 -77.53978 24786 ft 387 kts 183°
2026-05-05 22:59 26.50325 -77.53815 24386 ft 385 kts 183°
2026-05-05 22:59 26.47657 -77.53650 23978 ft 383 kts 183°
2026-05-05 23:00 26.42373 -77.53317 23164 ft 378 kts 183°
2026-05-05 23:00 26.39747 -77.53153 22767 ft 377 kts 183°
2026-05-05 23:00 26.37138 -77.52988 22364 ft 375 kts 183°
2026-05-05 23:01 26.34542 -77.52820 21962 ft 373 kts 182°
2026-05-05 23:01 26.31968 -77.52655 21561 ft 370 kts 182°
2026-05-05 23:01 26.29402 -77.52494 21160 ft 368 kts 182°
2026-05-05 23:01 26.26855 -77.52336 20759 ft 366 kts 182°
2026-05-05 23:02 26.25170 -77.52232 20500 ft 364 kts 182°
2026-05-05 23:02 26.22646 -77.52075 20093 ft 362 kts 182°
2026-05-05 23:02 26.20137 -77.51918 19705 ft 360 kts 182°
2026-05-05 23:02 26.17649 -77.51764 19311 ft 357 kts 182°
2026-05-05 23:03 26.15173 -77.51610 18919 ft 355 kts 181°
2026-05-05 23:03 26.12712 -77.51457 18529 ft 353 kts 181°
2026-05-05 23:03 26.10269 -77.51307 18144 ft 351 kts 181°
2026-05-05 23:03 26.07843 -77.51159 17748 ft 348 kts 181°
2026-05-05 23:04 26.05424 -77.51011 17315 ft 347 kts 181°
2026-05-05 23:04 26.03022 -77.50863 16930 ft 344 kts 181°
2026-05-05 23:04 26.00637 -77.50715 16551 ft 342 kts 181°
2026-05-05 23:04 25.98271 -77.50565 16169 ft 339 kts 181°
2026-05-05 23:05 25.95927 -77.50417 15798 ft 336 kts 181°
2026-05-05 23:05 25.93602 -77.50272 15430 ft 333 kts 181°
2026-05-05 23:05 25.91314 -77.50128 15052 ft 323 kts 181°
2026-05-05 23:05 25.89124 -77.49987 14708 ft 309 kts 181°
2026-05-05 23:06 25.87022 -77.49850 14370 ft 296 kts 181°
2026-05-05 23:06 25.85002 -77.49721 14045 ft 289 kts 181°
2026-05-05 23:06 25.82998 -77.49597 13713 ft 288 kts 181°
2026-05-05 23:06 25.81000 -77.49476 13394 ft 287 kts 181°
2026-05-05 23:07 25.79012 -77.49356 13069 ft 286 kts 181°
2026-05-05 23:07 25.77028 -77.49235 12743 ft 285 kts 181°
2026-05-05 23:07 25.75054 -77.49114 12421 ft 284 kts 181°
2026-05-05 23:07 25.73086 -77.48992 12095 ft 283 kts 181°
2026-05-05 23:08 25.71124 -77.48869 11771 ft 281 kts 181°
2026-05-05 23:08 25.69171 -77.48749 11448 ft 280 kts 181°
2026-05-05 23:08 25.67227 -77.48629 11125 ft 279 kts 181°
2026-05-05 23:08 25.65289 -77.48510 10799 ft 278 kts 181°
2026-05-05 23:09 25.63360 -77.48390 10472 ft 277 kts 181°
2026-05-05 23:09 25.61438 -77.48271 10147 ft 276 kts 180°
2026-05-05 23:09 25.59521 -77.48154 9832 ft 275 kts 180°
2026-05-05 23:09 25.57620 -77.48037 9510 ft 273 kts 180°
2026-05-05 23:10 25.55746 -77.47920 9193 ft 272 kts 180°
2026-05-05 23:10 25.53857 -77.47806 8867 ft 271 kts 180°
2026-05-05 23:10 25.51990 -77.47894 8550 ft 267 kts 193°
2026-05-05 23:10 25.50239 -77.48477 8240 ft 263 kts 205°
2026-05-05 23:11 25.48558 -77.49268 7928 ft 262 kts 205°
2026-05-05 23:11 25.46875 -77.50050 7608 ft 262 kts 205°
2026-05-05 23:11 25.45195 -77.50826 7296 ft 261 kts 205°
2026-05-05 23:11 25.43522 -77.51600 6975 ft 260 kts 205°
2026-05-05 23:12 25.41853 -77.52372 6664 ft 260 kts 205°
2026-05-05 23:12 25.40186 -77.53144 6343 ft 259 kts 204°
2026-05-05 23:12 25.38525 -77.53913 6025 ft 259 kts 204°
2026-05-05 23:12 25.36866 -77.54680 5706 ft 258 kts 204°
2026-05-05 23:13 25.35215 -77.55444 5386 ft 257 kts 204°
2026-05-05 23:13 25.33569 -77.56209 5072 ft 256 kts 204°
2026-05-05 23:13 25.31926 -77.56970 4757 ft 255 kts 204°
2026-05-05 23:13 25.30294 -77.57725 4478 ft 253 kts 203°
2026-05-05 23:14 25.28706 -77.58458 4401 ft 241 kts 203°
2026-05-05 23:14 25.27192 -77.59155 4308 ft 231 kts 203°
2026-05-05 23:14 25.25744 -77.59824 4205 ft 220 kts 203°
2026-05-05 23:14 25.24369 -77.60462 4109 ft 210 kts 203°
2026-05-05 23:15 25.23055 -77.61069 4017 ft 199 kts 203°
2026-05-05 23:15 25.21820 -77.61639 3959 ft 186 kts 203°
2026-05-05 23:15 25.20646 -77.62141 3828 ft 177 kts 195°
2026-05-05 23:15 25.19458 -77.62248 3702 ft 168 kts 175°
2026-05-05 23:16 25.18361 -77.61918 3553 ft 163 kts 155°
2026-05-05 23:16 25.17448 -77.61217 3376 ft 158 kts 136°
2026-05-05 23:16 25.16699 -77.60382 3184 ft 150 kts 136°
2026-05-05 23:16 25.15974 -77.59574 2994 ft 147 kts 136°
2026-05-05 23:17 25.15266 -77.58787 2827 ft 144 kts 136°
2026-05-05 23:17 25.14569 -77.58011 2628 ft 142 kts 136°
2026-05-05 23:17 25.13877 -77.57240 2434 ft 141 kts 136°
2026-05-05 23:17 25.13188 -77.56472 2251 ft 141 kts 136°
2026-05-05 23:18 25.12501 -77.55708 2062 ft 140 kts 137°
2026-05-05 23:18 25.11817 -77.54946 1877 ft 140 kts 137°
2026-05-05 23:18 25.11133 -77.54184 1689 ft 139 kts 137°
2026-05-05 23:18 25.10456 -77.53418 1501 ft 139 kts 136°
2026-05-05 23:19 25.09781 -77.52652 1364 ft 139 kts 136°
2026-05-05 23:19 25.09120 -77.51867 1211 ft 139 kts 136°
2026-05-05 23:19 25.08446 -77.51102 989 ft 139 kts 137°
2026-05-05 23:19 25.07762 -77.50361 817 ft 137 kts 139°
2026-05-05 23:20 25.07070 -77.49626 650 ft 138 kts 138°
2026-05-05 23:20 25.06381 -77.48895 430 ft 137 kts 139°
2026-05-05 23:20 25.05719 -77.48151 194 ft 137 kts 137°
2026-05-05 23:20 25.05043 -77.47414 39 ft 137 kts 136°
2026-05-05 23:21 25.04471 -77.46783 21 ft 80 kts 134°
2026-05-05 23:21 25.04198 -77.46474 19 ft 57 kts 131°
2026-05-05 23:21 25.04118 -77.46283 18 ft 13 kts 98°
2026-05-05 23:21 25.04123 -77.46140 19 ft 16 kts 46°
2026-05-05 23:22 25.04163 -77.46164 17 ft 12 kts 294°
2026-05-05 23:22 25.04246 -77.46274 17 ft 26 kts 315°
2026-05-05 23:22 25.04406 -77.46452 17 ft 39 kts 314°
2026-05-05 23:22 25.04606 -77.46675 18 ft 33 kts 316°
2026-05-05 23:23 25.04770 -77.46849 18 ft 27 kts 315°
2026-05-05 23:23 25.04897 -77.46952 18 ft 16 kts
2026-05-05 23:23 25.04960 -77.46861 18 ft 17 kts 41°
2026-05-05 23:23 25.05058 -77.46847 19 ft 6 kts 350°
2026-05-05 23:24 25.05060 -77.46847 17 ft 0 kts 349°